Regional Weather Roundup
Issued by NWS

Home | Current Version | Previous Version | Graphics & Text | Print | Product List | Glossary On
Versions: 1 2 3 4 5 6 7 8 9 10 11 12 13 14 15 16 17 18 19 20 21 22 23 24 25 26 27 28 29 30 31 32 33 34 35 36 37 38 39 40 41 42 43 44 45 46 47 48 49 50
000
ASUS45 KPSR 251910
RWRAZ

ARIZONA REGIONAL HOURLY WEATHER ROUNDUP
NATIONAL WEATHER SERVICE PHOENIX AZ
1200 PM MST FRI JUL 25 2014

NOTE: FAIR INDICATES FEW OR NO CLOUDS BELOW 12,000 FEET WITH NO
SIGNIFICANT WEATHER AND/OR OBSTRUCTIONS TO VISIBILITY.

AZZ001>003-036-252000-
NORTHWEST ARIZONA

CITY           SKY/WX    TMP DP  RH WIND       PRES   REMARKS
BULLHEAD CITY  PTSUNNY  102  57  22 SW13      29.84F HX 101
KINGMAN        MOSUNNY   95  52  23 SW22G28   30.06S
$$

AZZ004>008-015-016-018-252000-
NORTH CENTRAL ARIZONA

CITY           SKY/WX    TMP DP  RH WIND       PRES   REMARKS
GRAND CANYON   MOSUNNY   84  47  27 NW10      30.31F
WILLIAMS       PTSUNNY   81  50  34 W8        30.38F
PRESCOTT       PTSUNNY   86  48  26 NW12      30.18F THUNDER
FLAGSTAFF      MOSUNNY   84  43  23 W13G18    30.35F
PAYSON         SUNNY     91  52  25 VRB7G14   30.21F
PAGE           MOSUNNY   97  47  18 VRB6      30.07F
$$

AZZ009>014-017-252000-
NORTHEAST ARIZONA

CITY           SKY/WX    TMP DP  RH WIND       PRES   REMARKS
WINSLOW        MOSUNNY   96  43  16 SW8       30.15F
SAINT JOHNS    SUNNY     91  40  16 E8        30.21F
WINDOW ROCK    MOSUNNY   88  39  17 VRB7      30.31S
SHOW LOW       MOSUNNY   84  39  20 SW7       30.31F
$$

AZZ023-252000-
GREATER PHOENIX AREA

CITY           SKY/WX    TMP DP  RH WIND       PRES   REMARKS
PHOENIX        MOSUNNY  102  61  25 VRB5      29.87F HX 103
BUCKEYE          N/A    100  59  25 S9        29.89F HX 100
GLENDALE       MOSUNNY  102  63  27 S6        29.89F HX 104
LUKE AFB       NOT AVBL
DEER VALLEY    SUNNY    100  61  27 SW8       29.90F HX 101
SCOTTSDALE     SUNNY     99  62  29 VRB6      29.92F HX 100
MESA-FALCON    MOSUNNY   99  64  32 W8        29.89F HX 101
MESA-GATEWAY   MOSUNNY  100  57  23 S8        29.92F
CHANDLER       MOSUNNY  100  63  28 SW9       29.90F HX 102
$$

AZZ027-028-252000-
SOUTHWEST MARICOPA COUNTY AND PINAL COUNTY

CITY           SKY/WX    TMP DP  RH WIND       PRES   REMARKS
CASA GRANDE    SUNNY    102  61  25 CALM      29.92F HX 103
GILA BEND      PTCLDY   102  59  24 SW7G17    29.89F HX 102
$$

AZZ503-504-507>509-252000-
SOUTHEAST ARIZONA

CITY           SKY/WX    TMP DP  RH WIND       PRES   REMARKS
TUCSON         SUNNY     99  57  24 E7        30.01F
DAVIS-MONTHAN  SUNNY     96  60  30 W3        29.99F
RYAN FIELD       N/A     97  61  30 E3        30.00F
NOGALES        CLOUDY    93  58  30 VRB5      30.09F
SIERRA VISTA   MOSUNNY   90  55  31 E8        30.16F
DOUGLAS        CLOUDY    93  58  30 SE6       30.12F
SAFFORD        SUNNY     98  50  19 VRB7      30.01F
$$

AZZ020-021-025-026-031-252000-
SOUTHWEST ARIZONA

CITY           SKY/WX    TMP DP  RH WIND       PRES   REMARKS
YUMA           MOSUNNY  106  63  24 S24       29.81F HX 109
$$

CAZ031-033-041-043-047-048-061-252000-
SOUTHERN CALIFORNIA

CITY           SKY/WX    TMP DP  RH WIND       PRES   REMARKS
DOWNTOWN L.A.  SUNNY     85  64  49 VRB3      29.88F
L.A. AIRPORT   MOSUNNY   81  64  56 SW10      29.90S
SAN DIEGO      CLOUDY    74  65  73 S10       29.94R
BURBANK        SUNNY     86  61  42 S9        29.90S
ONTARIO        MOSUNNY   90  57  32 SW9       29.90S
RIVERSIDE      MOSUNNY   89  58  34 VRB5      29.90S
PALM SPRINGS   CLOUDY    95  67  39 N7        29.87F
EL CENTRO NAS  MOSUNNY  103  68  32 E5        29.77F HX 109
IMPERIAL       SUNNY    104  69  32 VRB7G20   29.77F HX 111
BLYTHE         SUNNY    105  61  23 S15G24    29.82F HX 106
NEEDLES        MOSUNNY  106  55  18 S8        29.85F HX 105
$$

NVZ020-UTZ003-252000-
SOUTHERN NEVADA-UTAH

CITY           SKY/WX    TMP DP  RH WIND       PRES   REMARKS
LAS VEGAS      CLOUDY    98  52  21 S13G21    29.87S
SALT LAKE CITY MOSUNNY   85  48  27 NW9       30.03F
$$

NMZ009-TXZ055-252000-
NEW MEXICO-WEST TEXAS

CITY           SKY/WX    TMP DP  RH WIND       PRES   REMARKS
ALBUQUERQUE    MOSUNNY   91  44  19 VRB3      30.19F
EL PASO        MOSUNNY   94  48  20 S9        30.09F
$$


........................KEY........................
SKY/WX - SKY CONDITION/WEATHER
TMP    - TEMPERATURE IN FAHRENHEIT
DP     - DEW POINT IN FAHRENHEIT
RH     - RELATIVE HUMIDITY IN PERCENT
WIND   - DIRECTION AND SPEED IN MILES PER HOUR (MPH)
VRB    - VARIABLE WIND DIRECTION
PRES   - MEAN SEA LEVEL PRESSURE IN INCHES OF MERCURY
         F - FALLING PRESSURE   R - RISING PRESSURE
         S - STEADY PRESSURE
VSB    - VISIBILITY IN MILES
HX     - HEAT INDEX IN FAHRENHEIT
WCI    - WIND CHILL INDEX IN FAHRENHEIT
TC     - TEMPERATURE IN CELSIUS WHICH IS ALSO KNOWN AS
         TEMPERATURE IN CENTIGRADE
AFB    - AIR FORCE BASE
         LUKE AFB IS LUKE AIR FORCE BASE
         DAVIS-MONTHAN IS DAVIS-MONTHAN AIR FORCE BASE
NAS    - NAVAL AIR STATION
         EL CENTRO NAS IS EL CENTRO NAVAL AIR STATION
N/A    - NOT AVAILABLE


USA.gov is the U.S. government's official web portal to all federal, state and local government web resources and services.